User: anonymous   Login
Location: Unspecified
(0.0000°N, 0.0000°E)
Time: 00:46:24
(UTC+01:00)
Language:

ARIANE 5 R/B - Orbit

View from above orbital plane
View from above orbital plane
View from above satellite
View from above satellite

Ground track
Ground track

The orbit data is extracted from the following two-line orbital elements,

1 28379U 04027B   16037.31990060 -.00000172  00000-0 -62513-3 0  9999
2 28379   6.4582 133.8620 7289315 105.0079 353.2859  2.07928979 87807
Epoch (UTC): 06 February 2016 07:40:39
Eccentricity: 0.7289315
inclination: 6.4582°
perigee height: 650 km
apogee height: 38451 km
right ascension of ascending node: 133.8620°
argument of perigee: 105.0079°
revolutions per day: 2.07928979
mean anomaly at epoch: 353.2859°
orbit number at epoch: 8780

The dashed part of the orbit path shows where the satellite is in the earth's shadow,  

DLR